Wind from 320 at 9 knots

Air temperature 5.0° C
Visibility: greater than 8.7 NM
Dewpoint 3.0° C

Last reported at 2014-Apr-24 06:53 UTC.
Time now 2014-Apr-24 09:24 UTC

Location: N 57°03' W 135°22'.
View on Google Maps.

See reports from other nearby stations

Tides Stations Pressure Air Temp Water Temp Dewpoint Dewpoint depression Visibility Wind Speed Wind Dir Waves Ship positions

  
sailing weather and tide predictions

Sitka Rocky Gutierrez weather

date/time (UTC)wind fromknots sea level pressurealtimeterstation pressurevisibilityair tempwater tempwave heightnotes
2014-Apr-24 08:32 330 7 8.7 5.0
2014-Apr-24 07:53 340 7 8.7 5.0
2014-Apr-24 06:53 320 9 8.7 5.0
2014-Apr-24 05:53 310 7 8.7 6.0
2014-Apr-24 05:33 310 6 8.7 6.0
2014-Apr-24 04:53 310 8 8.7 6.0
2014-Apr-24 03:53 300 10 8.7 7.0
2014-Apr-24 02:53 290 10 8.7 7.0
2014-Apr-24 02:00 300 9 8.7 7.0
2014-Apr-24 01:53 300 9 8.7 7.0
2014-Apr-24 00:53 310 7 8.7 7.0
2014-Apr-24 00:00 230 5 8.7 7.0
2014-Apr-23 23:53 230 6 8.7 7.0
2014-Apr-23 22:53 230 6 8.7 7.0
2014-Apr-23 21:53 230 6 8.7 7.0
2014-Apr-23 20:53 230 7 8.7 7.0
2014-Apr-23 19:53 220 5 8.7 7.0
2014-Apr-23 18:53 290 4 8.7 7.0
2014-Apr-23 17:53 290 3 8.7 6.0
2014-Apr-23 16:53 310 3 8.7 6.0
2014-Apr-23 16:31 310 4 8.7 6.0
2014-Apr-23 15:53 310 4 8.7 6.0
2014-Apr-23 15:41 320 5 8.7 5.0
2014-Apr-23 15:21 310 5 8.7 5.0
2014-Apr-23 15:05 320 4 7.8 5.0
2014-Apr-23 14:53 320 4 7.0 5.0
2014-Apr-23 13:53 310 7 7.0 6.0
2014-Apr-23 13:35 300 7 8.7 6.0
2014-Apr-23 12:53 310 7 8.7 6.0
2014-Apr-23 12:31 310 8 8.7 6.0
2014-Apr-23 11:53 300 9 8.7 6.0
2014-Apr-23 11:48 300 10 8.7 6.0
2014-Apr-23 10:53 320 9 8.7 6.0
2014-Apr-23 10:35 330 7 8.7 6.0
2014-Apr-23 09:53 300 7 8.7 6.0
2014-Apr-23 08:53 300 8 8.7 6.0
2014-Apr-23 08:02 320 7 8.7 6.0
2014-Apr-23 07:53 320 8 8.7 6.0
2014-Apr-23 06:53 310 10 8.7 6.0
2014-Apr-23 05:53 320 11 8.7 6.0
2014-Apr-23 04:53 320 12 8.7 6.0
2014-Apr-23 03:53 300 13 8.7 7.0
2014-Apr-23 02:53 320 15 8.7 7.0
2014-Apr-23 01:53 300 18 8.7 7.0
2014-Apr-23 00:53 300 19 8.7 7.0
2014-Apr-22 23:53 310 15 8.7 8.0
2014-Apr-22 22:53 300 15 8.7 8.0
2014-Apr-22 21:53 290 18 8.7 9.0
2014-Apr-22 20:53 280 12 8.710.0
2014-Apr-22 19:53 290 11 8.710.0
2014-Apr-22 18:53 160 6 8.7 8.0
2014-Apr-22 17:53 160 4 8.7 7.0
2014-Apr-22 16:53 290 4 8.7 5.0
2014-Apr-22 15:53 8.7 4.0
2014-Apr-22 14:53 100 5 8.7 2.0
2014-Apr-22 13:53 120 3 8.7 2.0
2014-Apr-22 12:53 100 4 8.7 2.0
2014-Apr-22 11:53 020 3 8.7 2.0
2014-Apr-22 10:53 100 3 8.7 2.0
2014-Apr-22 09:53 080 3 8.7 2.0